Westhampton Beach, NY

3:48 AM EDT on October 24, 2017 (GMT -0400)
The Gabreski

Weather History for KFOK - June, 2013

Change the Weather History Date:

Friday, June 14, 2013

  Actual Average Record
Temperature  
Mean Temperature 62 °F -  
Max Temperature 71 °F 71 °F 93 °F (2005)
Min Temperature 54 °F 54 °F 50 °F (2012)
Degree Days  
Heating Degree Days 2    
Growing Degree Days 12 (Base 50)    
Moisture  
Dew Point 53 °F    
Average Humidity 81    
Maximum Humidity 94    
Minimum Humidity 49    
Precipitation  
Precipitation 0.51 in - - ()
Sea Level Pressure  
Sea Level Pressure 29.64 in    
Wind  
Wind Speed 17 mph (North)    
Max Wind Speed 26 mph    
Max Gust Speed 36 mph    
Visibility 7 miles    
Events Rain    
Averages and records for this station are not official NWS values.
T = Trace of Precipitation, MM = Missing Value Source: NWS Daily Summary

Daily Weather History Graph

Daily Weather History Graph

Search for Another Location

Airport or City:

Trip Planner

Search our weather history database for the weather conditions in past years. The results will help you decide how hot, cold, wet, or windy it might be!

Date:

Astronomy

Jun. 14, 2013 Rise Set
Actual Time 5:18 AM EDT 8:23 PM EDT
Civil Twilight 4:44 AM EDT 8:57 PM EDT
Nautical Twilight 4:02 AM EDT 9:39 PM EDT
Astronomical Twilight 3:11 AM EDT 10:30 PM EDT
Moon 10:52 AM EDT (6/14) 11:56 PM EDT (6/14)
Length of Visible Light 16h 12m
Length of Day
15h 05m
Waxing Crescent, 30% of the Moon is Illuminated
Jun 14
Waxing Crescent
Jun 16
First Quarter
Jun 23
Full
Jun 30
Last Quarter
Jul 8
New

Hourly Weather History & Observations

Time (EDT) Temp. Dew Point Humidity Pressure Visibility Wind Dir Wind Speed Gust Speed Precip Events Conditions
12:00 AM 57.2 °F 53.6 °F 88% 29.50 in 2.5 mi NE 18.4 mph 29.9 mph 0.01 in Rain Light Rain
12:21 AM 57.2 °F 55.4 °F 94% 29.50 in 3.0 mi NE 23.0 mph 29.9 mph 0.04 in Rain Light Rain
12:39 AM 57.2 °F 55.4 °F 94% 29.50 in 2.0 mi ENE 17.3 mph 29.9 mph 0.13 in Rain Heavy Rain
12:42 AM 57.2 °F 55.4 °F 94% 29.51 in 1.8 mi ENE 17.3 mph 29.9 mph 0.16 in Rain Heavy Rain
12:45 AM 57.2 °F 55.4 °F 94% 29.51 in 2.0 mi NE 19.6 mph 32.2 mph 0.16 in Rain Heavy Rain
12:53 AM 57.0 °F 55.0 °F 93% 29.51 in 3.0 mi NE 21.9 mph 31.1 mph 0.18 in Rain Heavy Rain
1:00 AM 57.2 °F 55.4 °F 94% 29.50 in 2.5 mi NE 18.4 mph 32.2 mph 0.01 in Rain Rain
1:25 AM 57.2 °F 53.6 °F 88% 29.50 in 2.5 mi NE 21.9 mph 31.1 mph 0.05 in Rain Rain
1:32 AM 57.2 °F 55.4 °F 94% 29.50 in 2.5 mi NE 18.4 mph 28.8 mph 0.05 in Rain Light Rain
1:36 AM 57.2 °F 55.4 °F 94% 29.50 in 3.0 mi NE 20.7 mph 33.4 mph 0.05 in Rain Light Rain
1:48 AM 57.2 °F 53.6 °F 88% 29.51 in 4.0 mi NE 21.9 mph 35.7 mph 0.06 in Rain Light Rain
1:53 AM 57.0 °F 54.0 °F 89% 29.52 in 5.0 mi NE 21.9 mph 34.5 mph 0.06 in Rain Light Rain
2:06 AM 57.2 °F 53.6 °F 88% 29.52 in 2.0 mi NNE 20.7 mph 32.2 mph 0.03 in Rain Rain
2:14 AM 57.2 °F 53.6 °F 88% 29.53 in 1.8 mi NNE 26.5 mph 34.5 mph 0.06 in Rain Heavy Rain
2:22 AM 55.4 °F 53.6 °F 94% 29.53 in 2.0 mi North 15.0 mph 34.5 mph 0.08 in Rain Heavy Rain
2:43 AM 55.4 °F 51.8 °F 88% 29.53 in 3.0 mi North 19.6 mph 26.5 mph 0.16 in Rain Rain
2:53 AM 55.0 °F 52.0 °F 89% 29.54 in 3.0 mi North 18.4 mph 28.8 mph 0.20 in Rain Heavy Rain
3:53 AM 54.0 °F 52.0 °F 93% 29.56 in 8.0 mi North 17.3 mph 27.6 mph 0.04 in Rain Light Rain
4:01 AM 55.4 °F 51.8 °F 88% 29.56 in 7.0 mi North 18.4 mph 33.4 mph 0.00 in Rain Light Rain
4:24 AM 55.4 °F 51.8 °F 88% 29.57 in 9.0 mi North 18.4 mph 29.9 mph 0.01 in Rain Light Rain
4:40 AM 55.4 °F 51.8 °F 88% 29.57 in 7.0 mi North 20.7 mph 28.8 mph 0.01 in Rain Light Rain
4:53 AM 55.0 °F 52.0 °F 89% 29.58 in 6.0 mi North 18.4 mph 27.6 mph 0.01 in Rain Light Rain
5:01 AM 55.4 °F 51.8 °F 88% 29.59 in 6.0 mi North 17.3 mph 26.5 mph 0.01 in Rain Light Rain
5:53 AM 55.0 °F 52.0 °F 89% 29.60 in 10.0 mi North 17.3 mph 25.3 mph 0.02 in Rain Light Rain
6:00 AM 55.4 °F 51.8 °F 88% 29.60 in 10.0 mi North 15.0 mph 23.0 mph 0.00 in   Overcast
6:49 AM 55.4 °F 51.8 °F 88% 29.62 in 10.0 mi NNE 17.3 mph - 0.00 in   Overcast
6:53 AM 55.9 °F 52.0 °F 87% 29.62 in 10.0 mi NNE 19.6 mph 26.5 mph 0.00 in   Overcast
7:53 AM 55.9 °F 52.0 °F 87% 29.65 in 10.0 mi North 17.3 mph 21.9 mph 0.00 in   Overcast
8:53 AM 57.9 °F 53.1 °F 84% 29.68 in 10.0 mi North 13.8 mph - 0.00 in   Overcast
9:53 AM 61.0 °F 52.0 °F 72% 29.70 in 10.0 mi NNE 18.4 mph 25.3 mph N/A   Overcast
10:00 AM 60.8 °F 51.8 °F 72% 29.70 in 10.0 mi North 15.0 mph 24.2 mph N/A   Overcast
10:10 AM 60.8 °F 51.8 °F 72% 29.71 in 10.0 mi North 17.3 mph 27.6 mph N/A   Overcast
10:49 AM 60.8 °F 51.8 °F 72% 29.73 in 10.0 mi North 16.1 mph 23.0 mph N/A   Overcast
10:53 AM 61.0 °F 50.0 °F 67% 29.73 in 10.0 mi North 15.0 mph 23.0 mph N/A   Overcast
11:53 AM 61.0 °F 48.9 °F 64% 29.76 in 10.0 mi North 13.8 mph 24.2 mph N/A   Overcast
12:53 PM 60.1 °F 48.9 °F 67% 29.78 in 10.0 mi North 9.2 mph 20.7 mph N/A   Mostly Cloudy
1:53 PM 64.0 °F 48.9 °F 58% 29.79 in 10.0 mi North 11.5 mph - N/A   Clear
2:53 PM 64.9 °F 48.9 °F 56% 29.80 in 10.0 mi NNW 9.2 mph - N/A   Clear
3:53 PM 68.0 °F 50.0 °F 52% 29.79 in 10.0 mi NW 9.2 mph - N/A   Clear
4:53 PM 70.0 °F 51.1 °F 51% 29.78 in 10.0 mi West 9.2 mph - N/A   Clear
5:53 PM 71.1 °F 51.1 °F 49% 29.79 in 10.0 mi WNW 5.8 mph - N/A   Clear
6:53 PM 66.9 °F 52.0 °F 59% 29.80 in 10.0 mi SW 8.1 mph - N/A   Clear
7:53 PM 64.0 °F 53.1 °F 67% 29.81 in 10.0 mi West 5.8 mph - N/A   Clear
8:53 PM 61.0 °F 54.0 °F 78% 29.82 in 10.0 mi West 5.8 mph - N/A   Clear
9:53 PM 57.9 °F 53.1 °F 84% 29.84 in 10.0 mi WSW 5.8 mph - N/A   Clear
10:53 PM 55.9 °F 52.0 °F 87% 29.85 in 10.0 mi West 4.6 mph - N/A   Clear
11:53 PM 59.0 °F 54.0 °F 83% 29.86 in 10.0 mi West 3.5 mph - N/A   Clear